Previsão horária em Abdulgazino

Hoje, 30 Setembro, Quarta-feira

Tempo Temperatura Precipitação Vento Pressão Humidade
00:00 +8°C° 0 mm 1 m/s 723 mmHg 91%
01:00 +8°C° 0 mm 1 m/s 723 mmHg 92%
02:00 +6°C° 0 mm 0 m/s 723 mmHg 93%
03:00 +6°C° 0 mm 0 m/s 723 mmHg 93%
04:00 +6°C° 0 mm 0 m/s 723 mmHg 94%
05:00 +7°C° 0 mm 0 m/s 723 mmHg 94%
06:00 +7°C° 0 mm 0 m/s 723 mmHg 94%
07:00 +7°C° 0 mm 0 m/s 723 mmHg 93%
08:00 +9°C° 0 mm 0 m/s 723 mmHg 85%
09:00 +11°C° 0 mm 0 m/s 723 mmHg 77%
10:00 +14°C° 0 mm 0 m/s 723 mmHg 65%
11:00 +16°C° 0 mm 1 m/s 723 mmHg 63%
12:00 +16°C° 0 mm 1 m/s 723 mmHg 60%
13:00 +18°C° 0 mm 1 m/s 723 mmHg 57%
14:00 +18°C° 0 mm 1 m/s 723 mmHg 59%
15:00 +16°C° 0 mm 2 m/s 722 mmHg 60%
16:00 +16°C° 0 mm 2 m/s 722 mmHg 61%
17:00 +14°C° 0 mm 1 m/s 722 mmHg 70%
18:00 +12°C° 0 mm 1 m/s 722 mmHg 78%
19:00 +10°C° 0 mm 1 m/s 722 mmHg 87%
20:00 +9°C° 0 mm 0 m/s 722 mmHg 88%
21:00 +8°C° 0 mm 0 m/s 722 mmHg 89%
22:00 +8°C° 0 mm 0 m/s 722 mmHg 90%
23:00 +7°C° 0 mm 0 m/s 722 mmHg 91%

Amanhã, 1 Outubro, Quinta-feira

Tempo Temperatura Precipitação Vento Pressão Humidade
00:00 +7°C° 0 mm 0 m/s 722 mmHg 92%
01:00 +8°C° 0 mm 1 m/s 722 mmHg 93%
02:00 +8°C° 0 mm 1 m/s 722 mmHg 94%
03:00 +7°C° 0 mm 1 m/s 722 mmHg 94%
04:00 +7°C° 0 mm 1 m/s 722 mmHg 95%
05:00 +7°C° 0 mm 1 m/s 722 mmHg 95%
06:00 +7°C° 0 mm 1 m/s 722 mmHg 95%
07:00 +7°C° 0 mm 1 m/s 722 mmHg 96%
08:00 +9°C° 0 mm 1 m/s 722 mmHg 88%
09:00 +11°C° 0 mm 1 m/s 722 mmHg 80%
10:00 +13°C° 0 mm 1 m/s 723 mmHg 73%
11:00 +14°C° 0 mm 1 m/s 722 mmHg 69%
12:00 +14°C° 0 mm 2 m/s 722 mmHg 65%
13:00 +15°C° 0 mm 2 m/s 722 mmHg 61%
14:00 +15°C° 0 mm 2 m/s 722 mmHg 61%
15:00 +15°C° 0 mm 2 m/s 722 mmHg 62%
16:00 +15°C° 0 mm 2 m/s 722 mmHg 62%
17:00 +13°C° 0 mm 1 m/s 721 mmHg 69%
18:00 +11°C° 0 mm 1 m/s 721 mmHg 75%
19:00 +8°C° 0 mm 0 m/s 721 mmHg 82%
20:00 +8°C° 0 mm 0 m/s 721 mmHg 84%
21:00 +8°C° 0 mm 0 m/s 721 mmHg 85%
22:00 +7°C° 0 mm 0 m/s 721 mmHg 87%
23:00 +7°C° 0 mm 0 m/s 721 mmHg 88%

Depois de amanhã, 2 Outubro, Sexta-feira

Tempo Temperatura Precipitação Vento Pressão Humidade
00:00 +7°C° 0 mm 0 m/s 721 mmHg 89%
01:00 +6°C° 0 mm 0 m/s 721 mmHg 90%
02:00 +6°C° 0 mm 0 m/s 721 mmHg 90%
03:00 +6°C° 0 mm 0 m/s 721 mmHg 91%
04:00 +6°C° 0 mm 0 m/s 721 mmHg 91%
05:00 +6°C° 0 mm 0 m/s 721 mmHg 91%
06:00 +6°C° 0 mm 0 m/s 721 mmHg 91%
07:00 +6°C° 0 mm 0 m/s 721 mmHg 91%
08:00 +8°C° 0 mm 0 m/s 721 mmHg 83%
09:00 +10°C° 0 mm 0 m/s 721 mmHg 74%
10:00 +12°C° 0 mm 0 m/s 722 mmHg 66%
11:00 +14°C° 0 mm 1 m/s 721 mmHg 60%
12:00 +15°C° 0 mm 1 m/s 721 mmHg 54%
13:00 +16°C° 0 mm 1 m/s 721 mmHg 48%
14:00 +16°C° 0 mm 1 m/s 721 mmHg 49%
15:00 +15°C° 0 mm 1 m/s 721 mmHg 50%
16:00 +15°C° 0 mm 1 m/s 720 mmHg 51%
17:00 +13°C° 0 mm 1 m/s 720 mmHg 57%
18:00 +11°C° 0 mm 1 m/s 720 mmHg 63%
19:00 +9°C° 0 mm 1 m/s 719 mmHg 69%
20:00 +9°C° 0 mm 1 m/s 719 mmHg 72%
21:00 +9°C° 0 mm 1 m/s 719 mmHg 75%
22:00 +7°C° 0 mm 0 m/s 719 mmHg 78%
23:00 +8°C° 0 mm 1 m/s 719 mmHg 82%

3 Outubro, Sábado

Tempo Temperatura Precipitação Vento Pressão Humidade
00:00 +8°C° 0 mm 1 m/s 719 mmHg 85%
01:00 +8°C° 0 mm 1 m/s 719 mmHg 88%
02:00 +7°C° 0 mm 1 m/s 719 mmHg 90%
03:00 +7°C° 0 mm 1 m/s 719 mmHg 91%
04:00 +7°C° 0 mm 1 m/s 719 mmHg 93%
05:00 +7°C° 0 mm 1 m/s 719 mmHg 93%
06:00 +7°C° 0 mm 1 m/s 719 mmHg 94%
07:00 +7°C° 0 mm 1 m/s 718 mmHg 94%
08:00 +9°C° 0 mm 1 m/s 718 mmHg 85%
09:00 +11°C° 0 mm 1 m/s 719 mmHg 77%
10:00 +13°C° 0 mm 2 m/s 719 mmHg 68%
11:00 +14°C° 0 mm 2 m/s 718 mmHg 64%
12:00 +15°C° 0 mm 2 m/s 718 mmHg 59%
13:00 +16°C° 0 mm 3 m/s 718 mmHg 55%
14:00 +14°C° 0 mm 3 m/s 718 mmHg 57%
15:00 +14°C° 0 mm 3 m/s 718 mmHg 60%
16:00 +13°C° 0 mm 3 m/s 718 mmHg 62%
17:00 +12°C° 0 mm 3 m/s 718 mmHg 71%
18:00 +10°C° 0 mm 2 m/s 718 mmHg 80%
19:00 +8°C° 0 mm 2 m/s 717 mmHg 89%
20:00 +8°C° 0 mm 1 m/s 717 mmHg 90%
21:00 +8°C° 0 mm 1 m/s 718 mmHg 91%
22:00 +7°C° 0 mm 1 m/s 718 mmHg 92%
23:00 +7°C° 0 mm 1 m/s 718 mmHg 91%

4 Outubro, Domingo

Tempo Temperatura Precipitação Vento Pressão Humidade
00:00 +7°C° 0 mm 1 m/s 718 mmHg 90%
01:00 +7°C° 0 mm 1 m/s 718 mmHg 88%
02:00 +8°C° 0 mm 1 m/s 718 mmHg 87%
03:00 +8°C° 0 mm 1 m/s 718 mmHg 86%
04:00 +8°C° 0 mm 1 m/s 719 mmHg 86%
05:00 +7°C° 0.1 mm 2 m/s 719 mmHg 87%
06:00 +7°C° 0.1 mm 2 m/s 719 mmHg 89%
07:00 +5°C° 0.1 mm 3 m/s 719 mmHg 91%
08:00 +5°C° 0.1 mm 3 m/s 719 mmHg 90%
09:00 +4°C° 0.1 mm 3 m/s 719 mmHg 89%
10:00 +4°C° 0.1 mm 3 m/s 719 mmHg 88%
11:00 +4°C° 0.1 mm 3 m/s 719 mmHg 88%
12:00 +5°C° 0.1 mm 2 m/s 719 mmHg 88%
13:00 +4°C° 0.1 mm 2 m/s 719 mmHg 87%
14:00 +5°C° 0 mm 2 m/s 719 mmHg 87%
15:00 +5°C° 0 mm 2 m/s 719 mmHg 87%
16:00 +6°C° 0 mm 1 m/s 719 mmHg 88%
17:00 +5°C° 0 mm 1 m/s 719 mmHg 88%
18:00 +5°C° 0 mm 1 m/s 719 mmHg 88%
19:00 +5°C° 0 mm 1 m/s 720 mmHg 89%
20:00 +5°C° 0 mm 1 m/s 720 mmHg 88%
21:00 +5°C° 0 mm 1 m/s 720 mmHg 88%
22:00 +4°C° 0 mm 1 m/s 720 mmHg 88%
23:00 +4°C° 0 mm 1 m/s 720 mmHg 87%

5 Outubro, Segunda-feira

Tempo Temperatura Precipitação Vento Pressão Humidade
00:00 +4°C° 0 mm 1 m/s 720 mmHg 87%
01:00 +4°C° 0 mm 1 m/s 720 mmHg 87%
02:00 +3°C° 0 mm 1 m/s 720 mmHg 85%
03:00 +3°C° 0 mm 1 m/s 720 mmHg 83%
04:00 +2°C° 0 mm 1 m/s 720 mmHg 81%
05:00 +2°C° 0 mm 1 m/s 721 mmHg 80%
06:00 +2°C° 0 mm 1 m/s 721 mmHg 80%
07:00 +1°C° 0 mm 1 m/s 721 mmHg 79%
08:00 +3°C° 0 mm 1 m/s 721 mmHg 73%
09:00 +5°C° 0 mm 1 m/s 721 mmHg 66%
10:00 +7°C° 0 mm 1 m/s 721 mmHg 60%
11:00 +8°C° 0 mm 1 m/s 721 mmHg 56%
12:00 +9°C° 0 mm 1 m/s 721 mmHg 53%
13:00 +10°C° 0 mm 1 m/s 721 mmHg 49%
14:00 +10°C° 0 mm 1 m/s 721 mmHg 50%
15:00 +9°C° 0 mm 2 m/s 721 mmHg 51%
16:00 +8°C° 0 mm 2 m/s 720 mmHg 52%
17:00 +7°C° 0 mm 2 m/s 720 mmHg 59%
18:00 +6°C° 0 mm 1 m/s 720 mmHg 65%
19:00 +5°C° 0 mm 1 m/s 720 mmHg 72%
20:00 +4°C° 0 mm 1 m/s 720 mmHg 77%
21:00 +4°C° 0 mm 1 m/s 720 mmHg 81%
22:00 +3°C° 0 mm 1 m/s 720 mmHg 85%
23:00 +3°C° 0 mm 1 m/s 719 mmHg 87%
Mostrar mais